WetterOnline ( https://www.wetteronline.at )

Wetter aktuell Brünn

Aktuelles Wetter: Brünn - Turany (246m)

6-stündlich | Neueste Meldungen
Ortszeit Temperatur Wetter
Fr, 17.01. 19:00 -1.1° C Sprühregen
Fr, 17.01. 13:00 1.1° C bewölkt
Fr, 17.01. 7:00 -1.8° C wolkig
Fr, 17.01. 1:00 -2.2° C fast wolkenlos
Do, 16.01. 19:00 0.1° C leicht bewölkt
Do, 16.01. 13:00 1.3° C bedeckt
Do, 16.01. 7:00 -0.3° C bedeckt
Do, 16.01. 1:00 -0.3° C gefr. Sprühregen
Ortszeit Temperatur Wetter
Fr, 17.01. 19:30 -1° C gefr. Sprühregen
Fr, 17.01. 19:00 -1.1° C Sprühregen
Fr, 17.01. 18:41 -1° C gefr. Sprühregen
Fr, 17.01. 18:30 -1° C gefr. Sprühregen
Fr, 17.01. 18:15 -1° C gefr. Sprühregen
Fr, 17.01. 18:11 -1° C Sprühregen
Fr, 17.01. 18:00 -1.1° C bedeckt
Fr, 17.01. 17:30 -1° C bedeckt
Fr, 17.01. 17:00 -1.1° C bedeckt
Fr, 17.01. 16:30 -1° C bedeckt
Fr, 17.01. 16:00 -1.1° C bedeckt
Ortszeit Relative Feuchte Sichtweite
Fr, 17.01. 19:00 97% 3.5 km
Fr, 17.01. 13:00 91% 4.5 km
Fr, 17.01. 7:00 95% 5.0 km
Fr, 17.01. 1:00 96% 6 km
Do, 16.01. 19:00 92% 7 km
Do, 16.01. 13:00 87% 5.0 km
Do, 16.01. 7:00 94% 6 km
Do, 16.01. 1:00 97% 1.5 km
Ortszeit Relative Feuchte Sichtweite
Fr, 17.01. 19:30 100% 3.3 km
Fr, 17.01. 19:00 97% 3.5 km
Fr, 17.01. 18:41 100% 3.5 km
Fr, 17.01. 18:30 93% 3.5 km
Fr, 17.01. 18:15 93% 3.5 km
Fr, 17.01. 18:11 93% 3.5 km
Fr, 17.01. 18:00 95% 3.5 km
Fr, 17.01. 17:30 93% 3.5 km
Fr, 17.01. 17:00 96% 3.5 km
Fr, 17.01. 16:30 93% 3.5 km
Fr, 17.01. 16:00 95% 3.5 km
Ortszeit Niederschlagsmenge Niederschlagsart
Fr, 17.01. 19:00 0.1 l/m2 in 12 Std. Sprühregen
Fr, 17.01. 13:00 0.0 l/m2 in 6 Std. -
Fr, 17.01. 7:00 0.0 l/m2 in 12 Std. Nebel
Fr, 17.01. 1:00 0.0 l/m2 in 6 Std. -
Do, 16.01. 19:00 0.0 l/m2 in 12 Std. -
Do, 16.01. 13:00 0.0 l/m2 in 6 Std. -
Do, 16.01. 7:00 0.1 l/m2 in 12 Std. Sprühregen
Do, 16.01. 1:00 0.1 l/m2 in 6 Std. Sprühregen
Ortszeit Niederschlagsmenge Niederschlagsart
Fr, 17.01. 19:30 keine Meldung -
Fr, 17.01. 19:00 0.0 l/m2 in 1 Std. Sprühregen
Fr, 17.01. 18:41 keine Meldung -
Fr, 17.01. 18:30 keine Meldung -
Fr, 17.01. 18:15 keine Meldung -
Fr, 17.01. 18:11 keine Meldung -
Fr, 17.01. 18:00 0.0 l/m2 in 1 Std. -
Fr, 17.01. 17:30 keine Meldung -
Fr, 17.01. 17:00 0.0 l/m2 in 1 Std. -
Fr, 17.01. 16:30 keine Meldung -
Fr, 17.01. 16:00 0.0 l/m2 in 1 Std. -
Ortszeit Stärke Spitze Richtung
km/h Bft. km/h Grad Sektor
Fr, 17.01. 19:00 18 3 - 180° S
Fr, 17.01. 13:00 14 3 - 200° S
Fr, 17.01. 7:00 11 2 - 50° NO
Fr, 17.01. 1:00 7 2 - 50° NO
Do, 16.01. 19:00 7 2 - 10° N
Do, 16.01. 13:00 4 1 - 230° SW
Do, 16.01. 7:00 7 2 - 190° S
Do, 16.01. 1:00 7 2 - 180° S
Ortszeit Stärke Spitze Richtung
km/h Bft. km/h Grad Sektor
Fr, 17.01. 19:30 13 3 - 170° S
Fr, 17.01. 19:00 18 3 - 180° S
Fr, 17.01. 18:41 13 3 - 170° S
Fr, 17.01. 18:30 13 3 - 170° S
Fr, 17.01. 18:15 17 3 - 160° S
Fr, 17.01. 18:11 17 3 - 160° S
Fr, 17.01. 18:00 18 3 - 160° S
Fr, 17.01. 17:30 13 3 - 170° S
Fr, 17.01. 17:00 14 3 - 180° S
Fr, 17.01. 16:30 13 3 - 180° S
Fr, 17.01. 16:00 18 3 - 180° S
Ortszeit Untergrenze Bedeckung Gattung
total tief tief mittel hoch
Fr, 17.01. 19:00 60 m 8/8 8/8 St - -
Fr, 17.01. 13:00 210 m 7/8 7/8 Sc - -
Fr, 17.01. 7:00 1290 m 6/8 3/8 Sc - Ci
Fr, 17.01. 1:00 6900 m 1/8 0/8 - - Ci
Do, 16.01. 19:00 2700 m 2/8 2/8 - Ac -
Do, 16.01. 13:00 1800 m 8/8 8/8 Sc - -
Do, 16.01. 7:00 240 m 8/8 8/8 St - -
Do, 16.01. 1:00 60 m 8/8 8/8 St - -
Ortszeit Bedeckungsgrad in Achtel und Wolkenuntergrenze
Fr, 17.01. 19:30 8(60m)
Fr, 17.01. 19:00 8(60m)
Fr, 17.01. 18:41 8(60m)
Fr, 17.01. 18:30 8(90m)
Fr, 17.01. 18:15 8(120m)
Fr, 17.01. 18:11 8(120m)
Fr, 17.01. 18:00 8(150m)
Fr, 17.01. 17:30 8(120m)
Fr, 17.01. 17:00 8(90m)
Fr, 17.01. 16:30 8(120m)
Fr, 17.01. 16:00 8(120m)
Ortszeit Luftdruck NN (hPa) Tendenz (hPa in 3 Std.)
Fr, 17.01. 19:00 1027 + 0,3
Fr, 17.01. 13:00 1026 - 1,8
Fr, 17.01. 7:00 1029 - 1,3
Fr, 17.01. 1:00 1033 - 1,1
Do, 16.01. 19:00 1034 + 0,8
Do, 16.01. 13:00 1033 - 0,2
Do, 16.01. 7:00 1032 + 1,1
Do, 16.01. 1:00 1030 + 1,5
Ortszeit Luftdruck NN (hPa) Tendenz (hPa in 3 Std.)
Fr, 17.01. 19:30 1024 keine Meldung
Fr, 17.01. 19:00 1027 + 0,3
Fr, 17.01. 18:41 1024 keine Meldung
Fr, 17.01. 18:30 1024 keine Meldung
Fr, 17.01. 18:15 1024 keine Meldung
Fr, 17.01. 18:11 1024 keine Meldung
Fr, 17.01. 18:00 1027 + 0,1
Fr, 17.01. 17:30 1024 keine Meldung
Fr, 17.01. 17:00 1026 - 0,1
Fr, 17.01. 16:30 1024 keine Meldung
Fr, 17.01. 16:00 1026 - 0,4
Ortszeit Schneehöhe (cm)
Fr, 17.01. 19:00 -
Fr, 17.01. 13:00 -
Fr, 17.01. 7:00 0
Fr, 17.01. 1:00 -
Do, 16.01. 19:00 -
Do, 16.01. 13:00 -
Do, 16.01. 7:00 -
Do, 16.01. 1:00 -
Ortszeit Schneehöhe (cm)
Fr, 17.01. 19:30 -
Fr, 17.01. 19:00 -
Fr, 17.01. 18:41 -
Fr, 17.01. 18:30 -
Fr, 17.01. 18:15 -
Fr, 17.01. 18:11 -
Fr, 17.01. 18:00 -
Fr, 17.01. 17:30 -
Fr, 17.01. 17:00 -
Fr, 17.01. 16:30 -
Fr, 17.01. 16:00 -
Link zu dieser Seite / Seite empfehlen

Das Wetter in ...